Overview Statistics Trail Chart Weather Telemetry Raw packets
 

This is the latest recevied weather packets stored in our database for station/object N7IGG. If no packets are shown the sender has not sent any weather packets the latest 10 day(s).

<< 81 82 83 84 85 86 87 >>
Time Temp. Humidity Pressure Rain* Wind** Luminosity Snow
1777588440 18.89° C 70% 1017.8 hPa 0 mm - 476 W/m² -
1777588135 18.89° C 69% 1017.7 hPa 0 mm - 371 W/m² -
1777587831 18.89° C 69% 1017.9 hPa 0 mm - 438 W/m² -
1777587531 18.89° C 71% 1017.9 hPa 0 mm - 546 W/m² -
1777587227 17.78° C 73% 1018 hPa 0 mm - 519 W/m² -
1777586922 17.22° C 75% 1018 hPa 0 mm - 510 W/m² -
1777586619 16.67° C 75% 1018.1 hPa 0 mm - 311 W/m² -
1777586314 17.22° C 74% 1018.1 hPa 0 mm - 301 W/m² -
1777586013 17.22° C 75% 1018.4 hPa 0 mm - 307 W/m² -
1777585712 17.22° C 74% 1018.3 hPa 0 mm - 420 W/m² -
1777585413 18.33° C 73% 1018.2 hPa 0 mm - 612 W/m² -
1777585108 17.78° C 73% 1018.2 hPa 0 mm - 767 W/m² -
1777584804 17.78° C 72% 1018.4 hPa 0 mm - 538 W/m² -
1777584502 18.33° C 72% 1018.5 hPa 0 mm - 588 W/m² -
1777584199 18.33° C 72% 1018.3 hPa 0 mm - 366 W/m² -
1777583898 18.33° C 72% 1018.4 hPa 0 mm - 505 W/m² -
1777583594 18.33° C 74% 1018.8 hPa 0 mm - 652 W/m² -
1777583292 16.67° C 77% 1018.6 hPa 0 mm - 554 W/m² -
1777582988 16.67° C 75% 1018.8 hPa 0 mm - 555 W/m² -
1777582686 17.22° C 75% 1018.6 hPa 0 mm - 596 W/m² -
1777582380 16.67° C 73% 1018.5 hPa 0 mm - 522 W/m² -
1777582079 17.22° C 73% 1018.8 hPa 0 mm - 433 W/m² -
1777581773 16.67° C 73% 1018.8 hPa 0 mm - 423 W/m² -
1777581472 16.67° C 75% 1018.9 hPa 0 mm - 369 W/m² -
1777581167 16.67° C 75% 1019.1 hPa 0 mm - 340 W/m² -

* Rain latest hour (hover to see other rain measurements)
** Current wind speed in m/s (hover to see current wind gust speed)